Regional Weather Roundup
Issued by NWS Melbourne, FL

Home | Current Version | Previous Version | Text Only | Print | Product List | Glossary On
Versions: 1 2 3 4 5 6 7 8 9 10 11 12 13 14 15 16 17 18 19 20 21 22 23 24 25 26 27 28 29 30 31 32 33 34 35 36 37 38 39 40 41 42 43 44 45 46 47 48 49 50
000
ASUS42 KMLB 210912
RWRMLB
HOURLY WEATHER ROUNDUP AROUND FLORIDA
NATIONAL WEATHER SERVICE OFFICE MELBOURNE FL
400 AM EST THU NOV 21 2019

CITY           SKY/WX    TMP DP  RH WIND       PRES   REMARKS
MELBOURNE      FAIR      53  50  89 NW6       30.15S
FORT PIERCE    FAIR      56  51  84 NW5       30.14R
ORLANDO INTL   FAIR      53  48  83 N8        30.17F
DAYTONA BEACH  FAIR      55  50  83 CALM      30.18S
VERO BEACH     FAIR      57  52  83 NW6       30.14S
$$
...ELSEWHERE ACROSS CENTRAL FLORIDA...

CITY           SKY/WX    TMP DP  RH WIND       PRES   REMARKS
PATRICK AFB    FAIR      59  59  99 W7        30.15S
KSC            FAIR      56  54  93 NW5       30.15S
CAPE CANAVERAL FAIR      58  55  90 W5        30.14S
ORLANDO EXEC   FAIR      56  49  77 CALM      30.17F
LEESBURG       FAIR      52  48  86 N3        30.19F
SANFORD        FAIR      52  49  89 NW5       30.17F
DELAND         FAIR      50  46  87 NW5       30.18S
WINTER HAVEN   FAIR      53  50  89 NE3       30.19R
KISSIMMEE      FAIR      52  50  93 N5        30.18F
OKEECHOBEE     FAIR      54  46  76 N3        30.15R
TAMPA          FAIR      54  49  83 NE6       30.18S
$$
...NORTHERN FLORIDA...

CITY           SKY/WX    TMP DP  RH WIND       PRES   REMARKS
PALM COAST     FAIR      48  46  95 CALM      30.19S
ST AUGUSTINE   FAIR      61  52  72 NE9       30.21S
OCALA          FAIR      44  44 100 N3        30.21S
GAINESVILLE    FAIR      42  40  92 CALM      30.23R
JACKSONVILLE   FAIR      45  43  93 N3        30.22S
TALLAHASSEE    FAIR      40  36  86 CALM      30.22R
$$
...ALONG THE SOUTHEAST COAST TO THE KEYS...

CITY           SKY/WX    TMP DP  RH WIND       PRES   REMARKS
STUART         MOCLDY    61  52  72 NW7       30.14R
WEST PALM BCH  FAIR      59  53  80 NW7       30.11R
MIAMI          FAIR      64  52  64 NW8       30.11R
KEY WEST       FAIR      71  56  58 NE9       30.11R
$$
...MARINE REPORTS...

STATION/POSITION TIME  TEMP    WIND        PRES    WAVE   SWELL
                       AIR SEA DIR/SP/G            HT/PER HT/PER
                 (UTC) (F)     (DEG/KT/KT) (MB)    (FT/S) (FT/S)
ST AUGUSTINE FP  0900   64 63   30/ 12/ 14 1022.4S
20NM E CAPE CANA 0850   71 74   50/ 12/ 17 1020.9S   4/11   3/11
TRIDENT PIER     0830   61 70  310/  5/  6 1022.2F
SEBASTIAN INLET  0845   68 68  350/ 12     1021.0S
4NM E PORT CANAV 0900      69                N/A     2/11   2/11
6NM NE FPR INLET 0900      72                N/A     3/11   2/11
SETTLEMENT PT GB 0900   72      40/ 13/ 14 1019.4F
$$



USA.gov is the U.S. government's official web portal to all federal, state and local government web resources and services.